Flag for U.S.A. Weather past 2 weeks in Rapid City, South Dakota, U.S.A.

Now
30 °F

Mostly cloudy.


Feels Like: 20 °F
Forecast: 29 / 54 °F
Wind: 14 mph from Southeast

Location: Ellsworth Air Force Base


UV Index: 3 (Moderate)

Visibility: 10 mi


Pressure: 30.22 "Hg

Humidity: 86%

Dew point: 27 °F

Location of Rapid CityLocation

Historic Weather in Rapid City

°F

Rapid City temperature yesterday

Maximum temperature yesterday: 45 °F (at 2:58 PM)
Minimum temperature yesterday: 31 °F (at 11:58 PM)
Average temperature yesterday: 38 °F

Past Weeks' High & Low Weather Summary

 TemperatureHumidityPressure
High77 °F (Apr 9, 2:58 PM)100% (Apr 2, 10:58 PM)30.39 "Hg (Apr 2, 10:58 PM)
Low18 °F (Apr 3, 5:58 AM)15% (Apr 9, 2:58 PM)29.55 "Hg (Apr 15, 7:58 PM)
Average42 °F59%29.96 "Hg
* Reported Apr 2 5:58 AM — Apr 17 5:58 AM, Rapid City, Weather by CustomWeather, © 2014

Note: Actual official high and low records may vary slightly from our data, if they occured in-between our weather recording intervals... More about our weather records

Advertising

Historic Weather Conditions — Data for Previous 24 hours

 ConditionsComfort  
Time TempWeatherWind HumidityBarometerVisibility
5:58 AM
Apr 17
30 °FMostly cloudy.13 mph88%30.21 "Hg10 mi
4:58 AM28 °FOvercast.10 mph88%30.21 "Hg10 mi
3:58 AM29 °FOvercast.15 mph89%30.22 "Hg10 mi
2:58 AM30 °FOvercast.14 mph86%30.22 "Hg10 mi
1:58 AM31 °FOvercast.13 mph83%30.16 "Hg10 mi
12:58 AM31 °FOvercast.12 mph77%30.22 "Hg10 mi
11:58 PM
Apr 16
31 °FOvercast.8 mph79%30.24 "Hg10 mi
10:58 PM31 °FOvercast.7 mph78%30.24 "Hg10 mi
9:58 PM31 °FOvercast.6 mph81%30.26 "Hg8 mi
8:59 PM32 °FLight rain. Overcast.10 mph80%30.15 "Hg7 mi
8:58 PM33 °FOvercast.10 mph75%30.25 "Hg7 mi
7:58 PM34 °FOvercast.13 mph70%30.19 "Hg10 mi
6:58 PM36 °FPartly sunny.14 mph65%30.16 "Hg10 mi
5:58 PM40 °FPartly sunny.16 mph59%30.12 "Hg10 mi
4:58 PM43 °FOvercast.13 mph51%30.07 "Hg10 mi
3:58 PM45 °FOvercast.9 mph49%30.06 "Hg10 mi
2:58 PM45 °FMostly cloudy.12 mph51%30.05 "Hg10 mi
1:58 PM42 °FOvercast.10 mph55%30.04 "Hg10 mi
12:58 PM42 °FPartly sunny.17 mph56%30.02 "Hg10 mi
11:58 AM39 °FOvercast.18 mph63%30.01 "Hg10 mi
10:58 AM38 °FPartly sunny.23 mph69%29.98 "Hg10 mi
9:56 AM35 °FPartly sunny.22 mph73%29.93 "Hg10 mi
8:58 AM32 °FLight snow. More clouds than sun.23 mph89%29.89 "Hg4 mi
7:54 AM41 °FLight rain. Mostly cloudy.28 mph76%29.79 "Hg6 mi
Weather by CustomWeather, © 2014

See weather overview